Regional Weather Roundup
Issued by NWS

Home | Current Version | Previous Version | Text Only | Print | Product List | Glossary Off
Versions: 1 2 3 4 5 6 7 8 9 10 11 12 13 14 15 16 17 18 19 20 21 22 23 24 25 26 27 28 29 30 31 32 33 34 35 36 37 38 39 40 41 42 43 44 45 46 47 48 49 50

000
ASUS43 KLOT 221810
RWRIL

ILLINOIS REGIONAL WEATHER ROUNDUP
NATIONAL WEATHER SERVICE CHICAGO/ROMEOVILLE IL
1200 PM CST SAT NOV 22 2014

NOTE: "FAIR" INDICATES FEW OR NO CLOUDS BELOW 12,000 FEET WITH NO
SIGNIFICANT WEATHER AND/OR OBSTRUCTIONS TO VISIBILITY.

* THESE STATIONS ARE NOT UNDER NWS QUALITY CONTROL. THEY ALSO MAY NOT
  REPORT WEATHER SUCH AS PRECIPITATION OR FOG.

ILZ001-002-007-009-015-016-024-221900-
NORTHWEST ILLINOIS

CITY           SKY/WX    TMP DP  RH WIND       PRES   REMARKS
MOLINE         CLOUDY    51  46  83 SW10G21   29.87F
6HR MIN TEMP:  40; 6HR MAX TEMP:  51;

STERLING*      CLOUDY    48  45  87 SW5       29.89F
SAVANNA*       CLOUDY    48  46  92 S10       29.87F FOG
$$

ILZ003-004-008-010-011-017-018-221900-
NORTH CENTRAL ILLINOIS

CITY           SKY/WX    TMP DP  RH WIND       PRES   REMARKS
ROCKFORD       CLOUDY    44  41  89 S12       29.90F FOG
6HR MIN TEMP:  34; 6HR MAX TEMP:  44; 6HR PCP:  0.01;

FREEPORT*      CLOUDY    44  43  97 S16       29.88F FOG
ROCHELLE*      CLOUDY    44  43  95 S17       29.90F FOG
DE KALB*       CLOUDY    40  39  96 S13       29.91F
PERU*          CLOUDY    49  42  79 SW13      29.93F
$$

ILZ005-006-012>014-019>023-221900-
NORTHEAST ILLINOIS

CITY           SKY/WX    TMP DP  RH WIND       PRES   REMARKS
CHICAGO-OHARE  CLOUDY    42  38  85 S13       29.93F FOG
6HR MIN TEMP:  35; 6HR MAX TEMP:  42; 6HR PCP:  0.01;

CHICAGO-MIDWAY CLOUDY    45  39  79 S8        29.95F
6HR MIN TEMP:  37; 6HR MAX TEMP:  45; 6HR PCP:  0.01;

AURORA         CLOUDY    45  39  79 S13       29.93F HAZE
6HR MIN TEMP:  36; 6HR MAX TEMP:  45; 6HR PCP:  0.01;

LANSING*       CLOUDY    44  41  88 SW12      29.97F
JOLIET*        CLOUDY    46  40  82 SW8       29.95F
WAUKEGAN       CLOUDY    41  40  96 S14       29.89F FOG
6HR MIN TEMP:  34; 6HR MAX TEMP:  41; 6HR PCP:  0.01;

DUPAGE AIRPORT CLOUDY    43  40  89 S10       29.91F FOG
6HR MIN TEMP:  34; 6HR MAX TEMP:  43; 6HR PCP:  0.01;

KANKAKEE*      CLOUDY    47  44  87 S16       29.97F
WHEELING       CLOUDY    41  39  93 S12       29.95F FOG
6HR MIN TEMP:  35; 6HR MAX TEMP:  41; 6HR PCP: TRACE;

MORRIS*        CLOUDY    47  43  85 SW16G25   29.94F
ROMEOVILLE*    CLOUDY    46  41  83 SW14G20   29.94F
NORTHERLY ISL    N/A     44  38  79 SW10        N/A
$$

LMZ740>746-221900-
SOUTHERN LAKE MICHIGAN

STATION/POSITION SKY/WX   TEMP    WIND        PRES    VSBY  WAVE
                          AIR SEA DIR/SP/G                  HT/PER
                          (F)     (DEG/KT/KT) (MB)    (MI)  (FT/S)
SOUTHERN BUOY              42 43  210/ 19/ 23 1013.2F         5/ 6
WAUKEGAN HARBOR            41     200/ 14/ 16   N/A
HARRISON CRIB              42     190/ 17/ 20   N/A
BURNHAM HARBOR             44     200/  8/ 12   N/A
CALUMET HARBOR             44     190/  9/ 12 1013.3F
MICHIGAN CITY              44     170/ 16/ 20   N/A
$$

ILZ025>027-034>036-040-047-049-050-058-095>099-221900-
WEST-CENTRAL ILLINOIS

CITY           SKY/WX    TMP DP  RH WIND       PRES   REMARKS
QUINCY         PTSUNNY   57  48  72 SW21      29.94F
GALESBURG*     CLOUDY    52  45  76 S14       29.91F
MACOMB*        CLOUDY    55  48  78 SW12G21   29.95F
JACKSONVILLE*  CLOUDY    59  48  67 S15G22    29.97F
PITTSFIELD*    CLOUDY    58  49  69 S15G24    29.96F
$$

ILZ028>032-037-038-041>044-048-051>054-059>061-221900-
CENTRAL ILLINOIS

CITY           SKY/WX    TMP DP  RH WIND       PRES   REMARKS
PONTIAC        CLOUDY    50  45  83 S17G23    29.96F
BLOOMINGTON    CLOUDY    51  46  83 SW17G26   29.98F
DECATUR        CLOUDY    57  46  66 SW22G31   30.02F
PEORIA         CLOUDY    55  45  68 SW12      29.95F
6HR MIN TEMP:  41; 6HR MAX TEMP:  55;

LACON*         CLOUDY    49  41  75 SW10G20   29.94F
LINCOLN*       CLOUDY    55  46  71 S8G16     29.98F
SPRINGFIELD    CLOUDY    57  46  66 S20G28    29.99F
6HR MIN TEMP:  41; 6HR MAX TEMP:  57;

TAYLORVILLE    CLOUDY    55  45  67 S21G30    30.02F
$$

ILZ033-039-045-046-055>057-062-063-221900-
EAST-CENTRAL ILLINOIS

CITY           SKY/WX    TMP DP  RH WIND       PRES   REMARKS
CHAMPAIGN      PTSUNNY   56  47  71 SW24      30.02F
DANVILLE*      CLOUDY    50  45  82 SW20      30.00F
RANTOUL*       CLOUDY    55  47  77 SW17G24   30.00F
MATTOON        CLOUDY    54  44  69 S12G23    30.05F
PARIS*         PTSUNNY   55  46  73 S22G28    30.06F
$$

ILZ079-100>102-221900-
SOUTHWEST ILLINOIS

CITY           SKY/WX    TMP DP  RH WIND       PRES   REMARKS
ALTON          CLOUDY    55  45  67 S16G23    30.04F
BELLEVILLE     CLOUDY    58  47  67 S15G22    30.05F
CAHOKIA*       CLOUDY    60  45  57 S17G28    30.04F
SPARTA*        PTSUNNY   58  47  66 S16G23    30.09F
$$

ILZ064>066-069>071-074>076-080>082-084>086-088>090-092>094-221900-
SOUTH-CENTRAL ILLINOIS

CITY           SKY/WX    TMP DP  RH WIND       PRES   REMARKS
CARBONDALE     PTSUNNY   61  44  53 S17G29    30.12F
6HR MIN TEMP:  47; 6HR MAX TEMP:  61;

CAIRO*         PTSUNNY   65  44  46 S14G22    30.15F
EFFINGHAM*     CLOUDY    58  42  55 SW17G24   30.08F
MARION         PTSUNNY   61  45  55 S15       30.13F
MT. VERNON     CLOUDY    59  45  58 S23G29    30.12F
CENTRALIA*     CLOUDY    57  45  64 SW16G25   30.09F
SALEM*           N/A     60  46  60 S22G32    30.08F
METROPOLIS*    PTSUNNY   64  42  45 S12G18    30.15F
$$

ILZ067-068-072-073-078-083-087-091-221900-
SOUTHEAST ILLINOIS

CITY           SKY/WX    TMP DP  RH WIND       PRES   REMARKS
LAWRENCEVILLE  CLOUDY    59  44  57 S25G32    30.13F
FLORA*         PTSUNNY   58  45  61 SW18G26   30.11F
FAIRFIELD*     CLOUDY    60  45  58 S17G25    30.11F
HARRISBURG*    PTSUNNY   59  42  51 S18G24    30.14F
ROBINSON*      CLOUDY    59  44  57 SW18G25   30.12F
CARMI*         PTSUNNY   62  46  55 S21G26    30.14F
$$

ABBREVIATIONS USED IN REMARKS
   TC - TEMPERATURE IN CELSIUS
  WCI - WIND CHILL INDEX
   HX - HEAT INDEX
  VSB - VISIBILITY
$$



USA.gov is the U.S. government's official web portal to all federal, state and local government web resources and services.